Showing default

PIAST-S2, 66757

Orbit data source: Space-Track

PIAST-S2, 66757 is a Polish payload satellite in SSO that was launched on Fri, 28 Nov 2025 UTC via an FALCON 9 launch vehicle from the Air Force Western Test Range (AFWTR). Payload-class satellites include a variety of spacecraft equipped with specific instruments for various scientific and technological missions. These include communications satellites like Starlink; space stations such as the ISS; scientific satellites like the Hubble; Earth observation satellites from companies like Planet Labs, Umbra, and HawkEye 360; GPS; miniature CubeSats for education and research; and military/defense satellites.

Loading next visibility...
Identifier
66757, 2025-276CV
Orbit
SSO
Country
Flag of PLPL / POL
Related business
Manufacturer
CREO
Mission
Operational Amateur Imaging
Bus & Motor
CUBESAT 6U, Unknown motor
Mass
12 kg wet, 12 kg dry
Launch date (UTC)
2025-11-28 (9 months ago)
Launch vehicle
FALCON 9
Launch site
Air Force Western Test Range (AFWTR)
Object type
Payload
Rocket body
Debris
Shape & HBR
Box + 1 Pan, 0.2 m
Radar Cross Section
0.080 m², Medium (>0.1 m² and < 1m²)

Expand to show TLE details & history
Last TLE update: 6 hours ago

TLE from 6 hours ago
0 PIAST-S2
1 66757U 25276CV  26238.45230109  .00004804  00000-0  21878-3 0  9993
2 66757  97.4171 311.1654 0003178  80.1093 280.0501 15.21151305 41110
Epoch: 2026-08-26T10:51Z
TLE epoch observation values (Epoch: 2026-08-26T10:51:18.814Z)
Latitude
-0.00004°
Longitude
173.63192°
Altitude
505.077 km
Speed
7.612 km/s
True Right ascension
20h 44m 39s
True Declination
0° 00' 00"
Sunlit
Object was in full shadow at epoch
Visualization orbit readout
Latitude
Unknown
Longitude
Unknown
Altitude
Unknown
Speed
Unknown
Apparent Right ascension
Unknown
Apparent Declination
Unknown
Sunlit
N/A
Visualization observer readout
Local Sidereal Time
08:22:31
Azimuth
Unknown
Elevation
Unknown
Doppler factor
Unknown
Orbital elements
Apogee altitude
501.517 km
Perigee altitude
497.146 km
Semi-major axis
6,877.468 km
Eccentricity
0.00032
Inclination
97.4171°
RAAN
311.1654°
Arg. of periapsis
80.1093°
True anomaly
280.01424°
Mean anomaly
280.0501°
Eccentric anomaly
280.03217°
Mean motion
3.8054 °/min
Orbital period
94.6 mins
BSTAR
0.00021878
Loading maneuver chart data...
Computing Atmospheric mass density...
Loading historical data...
Loading historical data...
Loading historical data...
Loading historical data...
Loading historical data...
Loading historical data...
Loading historical data...

Documentation

Showing up to 5 results
|